When you browse on this site, cookies collect data to enhance your experience and personalize the content and advertising you see.
Visit our Privacy Policy to learn more. By continuing to use the site, you agree to this use of cookies and data.
  • In Austria
  • List of Countries
  • For 7 days
  • Water Temperature
  • Weather Map
  • News
  • Weather Widgets
  • user-avatar
    Login

    Hourly Weather Sliven

    Today, 18 October, Friday

    Time Temperature Precipitation Wind Pressure Humidity
    00:00 +14°C° 0 mm 0 mps 734 mmHg 71%
    01:00 +14°C° 0 mm 0 mps 734 mmHg 73%
    02:00 +13°C° 0 mm 0 mps 734 mmHg 71%
    03:00 +13°C° 0 mm 0 mps 734 mmHg 71%
    04:00 +13°C° 0 mm 0 mps 734 mmHg 70%
    05:00 +13°C° 0 mm 0 mps 734 mmHg 69%
    06:00 +14°C° 0 mm 0 mps 734 mmHg 66%
    07:00 +15°C° 0 mm 0 mps 734 mmHg 62%
    08:00 +16°C° 0 mm 0 mps 735 mmHg 59%
    09:00 +18°C° 0 mm 0 mps 735 mmHg 53%
    10:00 +22°C° 0 mm 1 mps 735 mmHg 48%
    11:00 +24°C° 0 mm 1 mps 735 mmHg 42%
    12:00 +24°C° 0 mm 1 mps 735 mmHg 40%
    13:00 +25°C° 0 mm 1 mps 734 mmHg 38%
    14:00 +26°C° 0 mm 1 mps 734 mmHg 36%
    15:00 +25°C° 0 mm 1 mps 734 mmHg 40%
    16:00 +23°C° 0 mm 1 mps 733 mmHg 43%
    17:00 +22°C° 0 mm 1 mps 733 mmHg 47%
    18:00 +21°C° 0 mm 1 mps 733 mmHg 52%
    19:00 +20°C° 0 mm 1 mps 733 mmHg 56%
    20:00 +18°C° 0 mm 1 mps 733 mmHg 61%
    21:00 +18°C° 0 mm 1 mps 733 mmHg 64%
    22:00 +16°C° 0 mm 1 mps 734 mmHg 67%
    23:00 +16°C° 0 mm 1 mps 734 mmHg 70%

    Tomorrow, 19 October, Saturday

    Time Temperature Precipitation Wind Pressure Humidity
    00:00 +16°C° 0 mm 1 mps 734 mmHg 71%
    01:00 +15°C° 0 mm 1 mps 733 mmHg 71%
    02:00 +14°C° 0 mm 0 mps 733 mmHg 71%
    03:00 +14°C° 0 mm 0 mps 733 mmHg 71%
    04:00 +14°C° 0 mm 0 mps 733 mmHg 71%
    05:00 +14°C° 0 mm 0 mps 734 mmHg 72%
    06:00 +15°C° 0 mm 0 mps 734 mmHg 69%
    07:00 +15°C° 0 mm 0 mps 734 mmHg 66%
    08:00 +16°C° 0 mm 0 mps 734 mmHg 63%
    09:00 +18°C° 0 mm 0 mps 734 mmHg 56%
    10:00 +22°C° 0 mm 1 mps 735 mmHg 49%
    11:00 +24°C° 0 mm 1 mps 735 mmHg 43%
    12:00 +25°C° 0 mm 1 mps 735 mmHg 41%
    13:00 +26°C° 0 mm 1 mps 735 mmHg 38%
    14:00 +26°C° 0 mm 1 mps 734 mmHg 36%
    15:00 +25°C° 0 mm 1 mps 734 mmHg 39%
    16:00 +24°C° 0 mm 1 mps 734 mmHg 43%
    17:00 +23°C° 0 mm 1 mps 734 mmHg 46%
    18:00 +21°C° 0 mm 1 mps 734 mmHg 52%
    19:00 +20°C° 0 mm 1 mps 734 mmHg 57%
    20:00 +19°C° 0 mm 1 mps 734 mmHg 63%
    21:00 +18°C° 0 mm 1 mps 734 mmHg 66%
    22:00 +18°C° 0 mm 1 mps 735 mmHg 69%
    23:00 +16°C° 0 mm 1 mps 735 mmHg 72%

    Day after tomorrow, 20 October, Sunday

    Time Temperature Precipitation Wind Pressure Humidity
    00:00 +16°C° 0 mm 1 mps 735 mmHg 73%
    01:00 +16°C° 0 mm 1 mps 735 mmHg 75%
    02:00 +15°C° 0 mm 1 mps 735 mmHg 76%
    03:00 +15°C° 0 mm 1 mps 735 mmHg 76%
    04:00 +14°C° 0 mm 0 mps 735 mmHg 77%
    05:00 +14°C° 0 mm 0 mps 735 mmHg 77%
    06:00 +15°C° 0 mm 0 mps 735 mmHg 73%
    07:00 +15°C° 0 mm 0 mps 735 mmHg 70%
    08:00 +16°C° 0 mm 0 mps 736 mmHg 66%
    09:00 +18°C° 0 mm 0 mps 736 mmHg 60%
    10:00 +22°C° 0 mm 1 mps 736 mmHg 53%
    11:00 +24°C° 0 mm 1 mps 736 mmHg 46%
    12:00 +25°C° 0 mm 1 mps 736 mmHg 44%
    13:00 +26°C° 0 mm 1 mps 736 mmHg 42%
    14:00 +26°C° 0 mm 1 mps 736 mmHg 40%
    15:00 +25°C° 0 mm 1 mps 736 mmHg 44%
    16:00 +24°C° 0 mm 1 mps 735 mmHg 48%
    17:00 +23°C° 0 mm 1 mps 735 mmHg 51%
    18:00 +21°C° 0 mm 1 mps 735 mmHg 57%
    19:00 +20°C° 0 mm 1 mps 736 mmHg 62%
    20:00 +19°C° 0 mm 1 mps 736 mmHg 68%
    21:00 +18°C° 0 mm 1 mps 736 mmHg 70%
    22:00 +16°C° 0 mm 1 mps 736 mmHg 73%
    23:00 +16°C° 0 mm 1 mps 736 mmHg 75%

    21 October, Monday

    Time Temperature Precipitation Wind Pressure Humidity
    00:00 +16°C° 0 mm 1 mps 736 mmHg 76%
    01:00 +15°C° 0 mm 1 mps 736 mmHg 77%
    02:00 +15°C° 0 mm 1 mps 736 mmHg 78%
    03:00 +14°C° 0 mm 0 mps 736 mmHg 78%
    04:00 +14°C° 0 mm 0 mps 736 mmHg 78%
    05:00 +13°C° 0 mm 0 mps 736 mmHg 78%
    06:00 +14°C° 0 mm 0 mps 736 mmHg 74%
    07:00 +15°C° 0 mm 0 mps 736 mmHg 70%
    08:00 +16°C° 0 mm 0 mps 737 mmHg 66%
    09:00 +18°C° 0 mm 0 mps 737 mmHg 58%
    10:00 +22°C° 0 mm 1 mps 737 mmHg 50%
    11:00 +24°C° 0 mm 1 mps 737 mmHg 42%
    12:00 +25°C° 0 mm 1 mps 737 mmHg 39%
    13:00 +25°C° 0 mm 1 mps 737 mmHg 36%
    14:00 +26°C° 0 mm 2 mps 737 mmHg 33%
    15:00 +25°C° 0 mm 2 mps 736 mmHg 37%
    16:00 +24°C° 0 mm 2 mps 736 mmHg 41%
    17:00 +22°C° 0 mm 1 mps 736 mmHg 45%
    18:00 +21°C° 0 mm 1 mps 736 mmHg 50%
    19:00 +19°C° 0 mm 1 mps 736 mmHg 56%
    20:00 +18°C° 0 mm 1 mps 736 mmHg 62%
    21:00 +16°C° 0 mm 1 mps 736 mmHg 63%
    22:00 +16°C° 0 mm 1 mps 736 mmHg 64%
    23:00 +16°C° 0 mm 1 mps 736 mmHg 66%

    22 October, Tuesday

    Time Temperature Precipitation Wind Pressure Humidity
    00:00 +14°C° 0 mm 0 mps 736 mmHg 66%
    01:00 +14°C° 0 mm 0 mps 736 mmHg 66%
    02:00 +14°C° 0 mm 0 mps 736 mmHg 67%
    03:00 +14°C° 0 mm 0 mps 736 mmHg 66%
    04:00 +14°C° 0 mm 0 mps 736 mmHg 66%
    05:00 +14°C° 0 mm 0 mps 736 mmHg 65%
    06:00 +15°C° 0 mm 0 mps 736 mmHg 62%
    07:00 +15°C° 0 mm 0 mps 736 mmHg 60%
    08:00 +16°C° 0 mm 0 mps 736 mmHg 57%
    09:00 +18°C° 0 mm 0 mps 737 mmHg 51%
    10:00 +20°C° 0 mm 0 mps 737 mmHg 45%
    11:00 +22°C° 0 mm 0 mps 737 mmHg 39%
    12:00 +25°C° 0 mm 1 mps 737 mmHg 37%
    13:00 +26°C° 0 mm 1 mps 736 mmHg 35%
    14:00 +26°C° 0 mm 1 mps 736 mmHg 32%
    15:00 +25°C° 0 mm 1 mps 736 mmHg 36%
    16:00 +24°C° 0 mm 1 mps 736 mmHg 40%
    17:00 +23°C° 0 mm 1 mps 735 mmHg 43%
    18:00 +21°C° 0 mm 1 mps 736 mmHg 48%
    19:00 +20°C° 0 mm 1 mps 736 mmHg 52%
    20:00 +19°C° 0 mm 1 mps 736 mmHg 56%
    21:00 +18°C° 0 mm 1 mps 736 mmHg 58%
    22:00 +18°C° 0 mm 1 mps 736 mmHg 61%
    23:00 +16°C° 0 mm 1 mps 736 mmHg 63%

    23 October, Wednesday

    Time Temperature Precipitation Wind Pressure Humidity
    00:00 +16°C° 0 mm 1 mps 736 mmHg 64%
    01:00 +16°C° 0 mm 1 mps 736 mmHg 65%
    02:00 +16°C° 0 mm 1 mps 736 mmHg 66%
    03:00 +15°C° 0 mm 1 mps 736 mmHg 67%
    04:00 +15°C° 0 mm 1 mps 736 mmHg 68%
    05:00 +15°C° 0 mm 1 mps 737 mmHg 69%
    06:00 +15°C° 0 mm 1 mps 737 mmHg 66%
    07:00 +16°C° 0 mm 1 mps 737 mmHg 63%
    08:00 +18°C° 0 mm 1 mps 737 mmHg 60%
    09:00 +20°C° 0 mm 1 mps 737 mmHg 54%
    10:00 +22°C° 0 mm 1 mps 737 mmHg 47%
    11:00 +24°C° 0 mm 1 mps 738 mmHg 41%
    12:00 +24°C° 0 mm 2 mps 737 mmHg 40%
    13:00 +25°C° 0 mm 2 mps 737 mmHg 40%
    14:00 +25°C° 0 mm 3 mps 737 mmHg 39%
    15:00 +24°C° 0 mm 3 mps 737 mmHg 45%
    16:00 +23°C° 0 mm 2 mps 736 mmHg 50%
    17:00 +20°C° 0 mm 2 mps 736 mmHg 56%
    18:00 +19°C° 0 mm 2 mps 736 mmHg 64%
    19:00 +17°C° 0 mm 2 mps 737 mmHg 72%
    20:00 +16°C° 0 mm 2 mps 737 mmHg 80%
    21:00 +15°C° 0 mm 1 mps 737 mmHg 83%
    22:00 +15°C° 0 mm 1 mps 737 mmHg 86%
    23:00 +14°C° 0 mm 1 mps 737 mmHg 89%
    Show more